Total_Precipitation_Accumulation
0.04 0.10 0.31 0.58 1.06 1.52 1.26 0.64 0.47 0.32 0.30 0.42 0.41 0.31 0.33 0.43 0.61 0.94 0.45 0.29 0.13 0.05 0.05 0.13 0.17 0.14 0.15 0.17 0.18 0.19 0.18 0.18 0.17 0.15 0.13 0.13 0.14 0.14 0.14 0.16 0.21 0.22 0.25 0.26 0.28 0.27 0.24 0.22 0.23
0.06 0.17 0.38 0.76 1.44 1.75 1.07 0.48 0.35 0.28 0.35 0.43 0.34 0.27 0.31 0.29 0.25 0.22 0.25 0.31 0.13 0.05 0.04 0.06 0.12 0.13 0.12 0.14 0.15 0.18 0.18 0.18 0.19 0.17 0.15 0.15 0.17 0.20 0.22 0.22 0.23 0.25 0.27 0.24 0.24 0.23 0.19 0.18 0.19
0.10 0.19 0.46 0.83 1.10 1.17 0.60 0.28 0.23 0.25 0.38 0.41 0.33 0.29 0.32 0.35 0.32 0.26 0.18 0.18 0.12 0.06 0.05 0.06 0.09 0.10 0.10 0.11 0.14 0.16 0.17 0.18 0.20 0.18 0.16 0.18 0.21 0.26 0.27 0.28 0.27 0.28 0.26 0.24 0.25 0.22 0.20 0.18 0.19
0.13 0.26 0.46 0.65 0.73 0.60 0.34 0.23 0.22 0.26 0.37 0.33 0.29 0.38 0.42 0.46 0.30 0.24 0.19 0.14 0.11 0.09 0.07 0.08 0.11 0.10 0.09 0.11 0.12 0.14 0.18 0.20 0.20 0.17 0.18 0.19 0.25 0.27 0.27 0.26 0.27 0.27 0.24 0.24 0.23 0.21 0.20 0.21 0.22
0.16 0.35 0.54 0.63 0.54 0.35 0.26 0.23 0.24 0.24 0.23 0.31 0.35 0.53 0.57 0.51 0.32 0.38 0.38 0.23 0.11 0.10 0.12 0.12 0.14 0.12 0.12 0.12 0.13 0.15 0.16 0.18 0.19 0.18 0.19 0.21 0.26 0.26 0.25 0.24 0.26 0.24 0.22 0.23 0.24 0.23 0.21 0.24 0.26
0.19 0.32 0.41 0.45 0.34 0.22 0.24 0.23 0.20 0.21 0.26 0.36 0.46 0.48 0.60 0.52 0.44 0.62 0.55 0.39 0.22 0.16 0.18 0.20 0.22 0.20 0.18 0.16 0.15 0.16 0.19 0.20 0.21 0.23 0.22 0.22 0.25 0.27 0.26 0.26 0.27 0.25 0.23 0.23 0.24 0.25 0.24 0.27 0.31
0.17 0.22 0.27 0.25 0.21 0.18 0.18 0.18 0.18 0.20 0.34 0.45 0.50 0.59 0.76 0.82 0.62 0.61 0.68 0.65 0.42 0.39 0.48 0.40 0.28 0.24 0.25 0.24 0.23 0.22 0.24 0.26 0.26 0.27 0.25 0.26 0.27 0.28 0.29 0.30 0.31 0.30 0.28 0.28 0.26 0.24 0.28 0.31 0.34
0.09 0.12 0.13 0.12 0.12 0.13 0.11 0.14 0.18 0.21 0.29 0.46 0.57 0.71 1.00 0.95 0.77 0.75 0.82 0.96 0.72 0.58 0.59 0.53 0.40 0.35 0.27 0.24 0.26 0.28 0.30 0.31 0.29 0.28 0.29 0.29 0.29 0.31 0.35 0.35 0.41 0.42 0.43 0.46 0.44 0.37 0.36 0.40 0.44
0.05 0.11 0.10 0.07 0.06 0.08 0.08 0.10 0.16 0.22 0.29 0.36 0.58 0.77 0.79 0.72 0.89 0.94 1.11 1.34 1.31 1.04 0.91 0.76 0.50 0.41 0.38 0.32 0.29 0.37 0.38 0.37 0.38 0.41 0.40 0.50 0.65 0.64 0.75 0.66 0.75 0.71 0.74 0.74 0.75 0.70 0.67 0.70 0.59
0.04 0.07 0.06 0.04 0.04 0.06 0.06 0.08 0.15 0.31 0.47 0.73 0.97 0.94 0.73 0.73 1.04 1.23 1.41 1.67 1.72 1.55 1.36 1.10 0.80 0.63 0.56 0.47 0.49 0.57 0.56 0.67 0.71 0.87 0.91 1.16 1.39 1.33 0.98 1.05 1.26 1.31 1.31 1.25 1.27 1.39 1.25 1.10 0.97
0.02 0.03 0.02 0.04 0.03 0.04 0.04 0.07 0.10 0.23 0.66 1.18 1.41 1.32 1.13 1.00 1.24 1.60 1.90 2.20 1.99 1.71 1.53 1.40 1.18 0.96 0.76 0.78 0.77 0.84 0.97 1.27 1.18 1.11 1.24 1.60 1.50 1.24 1.10 1.22 1.51 1.78 1.77 1.72 1.80 1.96 1.62 1.71 1.92
0.01 0.01 0.01 0.02 0.02 0.02 0.03 0.05 0.14 0.25 0.65 0.92 1.17 1.26 1.29 1.30 1.37 1.59 1.91 2.18 2.38 2.27 2.03 1.80 1.64 1.43 1.36 1.25 1.14 1.04 1.08 1.21 1.22 1.34 1.27 1.59 1.72 1.60 1.54 1.68 1.77 1.97 2.18 2.54 2.42 2.55 2.43 2.35 2.20
0.00 0.01 0.01 0.01 0.02 0.02 0.03 0.08 0.18 0.28 0.55 0.61 0.71 0.86 1.15 1.39 1.71 2.00 2.16 2.50 2.62 2.71 2.49 2.34 2.19 2.10 2.06 1.88 1.67 1.34 1.38 1.34 1.37 1.57 1.56 1.66 1.91 2.00 2.10 2.07 2.03 1.91 2.24 2.65 2.88 2.59 2.87 2.89 2.50
0.00 0.00 0.01 0.01 0.02 0.03 0.04 0.10 0.20 0.34 0.49 0.55 0.64 0.84 1.11 1.44 1.72 2.14 2.44 2.84 2.83 2.86 2.98 3.06 2.92 2.80 2.78 2.56 2.36 2.08 1.87 1.93 1.88 1.89 2.01 2.15 2.33 2.47 2.53 2.40 2.33 2.12 2.13 2.42 2.63 2.63 2.86 2.75 2.60
0.01 0.01 0.04 0.05 0.05 0.06 0.13 0.23 0.38 0.51 0.56 0.75 0.84 1.09 1.26 1.56 1.90 2.01 2.20 2.45 2.76 3.02 3.46 3.72 3.76 3.65 3.61 3.48 3.14 2.75 2.56 2.56 2.68 2.72 2.73 2.65 2.73 2.94 2.82 2.61 2.31 2.21 2.26 2.40 2.38 2.40 2.50 2.36 2.28
0.01 0.03 0.11 0.11 0.08 0.09 0.16 0.45 0.58 0.61 0.72 0.93 0.98 1.23 1.52 1.60 1.94 2.07 2.10 2.29 2.85 3.31 3.87 4.18 4.32 4.53 4.40 4.32 3.95 3.47 3.21 3.07 3.02 3.07 3.06 2.93 2.96 2.85 2.78 2.47 2.13 2.19 2.31 2.31 2.29 2.14 2.23 2.25 2.31
0.03 0.06 0.13 0.20 0.12 0.13 0.20 0.50 0.64 0.66 0.85 1.01 1.17 1.21 1.37 1.58 2.01 2.29 2.40 2.55 3.04 3.62 4.29 4.68 5.14 5.41 5.28 4.98 4.46 4.00 3.85 3.61 3.39 3.34 3.24 3.05 2.83 2.67 2.72 2.41 2.29 2.21 2.25 2.15 1.98 2.20 2.31 2.32 2.35
0.04 0.06 0.13 0.23 0.16 0.15 0.26 0.49 0.70 0.79 0.93 1.11 1.17 1.16 1.30 1.59 1.81 2.16 2.43 2.83 3.27 3.71 4.47 5.07 5.59 5.75 5.46 4.92 4.49 4.31 4.14 3.79 3.51 3.19 2.91 2.64 2.49 2.31 2.43 2.23 2.16 2.26 2.30 2.13 2.13 2.31 2.31 2.09 2.18
0.03 0.06 0.15 0.22 0.15 0.17 0.30 0.47 0.70 0.87 1.00 1.07 1.26 1.26 1.44 1.70 1.84 2.22 2.55 2.99 3.43 3.94 4.65 5.23 5.58 5.51 5.28 4.92 4.53 4.22 3.74 3.42 3.13 2.81 2.57 2.34 2.08 1.98 2.20 2.05 2.25 2.18 2.05 1.89 1.86 1.95 1.95 1.72 1.98
0.05 0.09 0.19 0.22 0.14 0.15 0.31 0.51 0.79 0.88 0.87 0.91 1.13 1.24 1.31 1.50 1.78 2.11 2.61 2.91 3.23 3.71 4.20 4.60 4.54 4.21 4.07 4.01 3.89 3.62 3.64 3.50 3.32 3.09 2.84 2.45 2.24 2.05 1.90 2.00 1.88 1.84 1.90 1.70 1.59 1.75 1.75 1.53 1.81
0.06 0.08 0.15 0.20 0.22 0.24 0.34 0.67 0.92 0.94 0.86 0.82 0.85 0.97 1.09 1.22 1.41 1.73 2.27 2.58 2.74 3.12 3.42 3.47 3.35 3.13 3.13 3.17 3.09 3.14 3.39 3.44 3.38 3.21 2.95 2.66 2.49 2.33 2.16 1.99 1.80 1.75 1.63 1.61 1.57 1.63 1.65 1.56 1.53
0.09 0.06 0.07 0.10 0.20 0.42 0.48 0.85 1.13 1.22 1.15 0.94 0.85 0.95 1.03 1.12 1.16 1.44 1.77 1.96 2.18 2.34 2.49 2.53 2.58 2.57 2.54 2.56 2.49 2.40 2.47 2.62 2.83 3.06 3.10 3.08 2.86 2.59 2.30 2.10 1.86 1.63 1.48 1.59 1.34 1.42 1.62 1.68 1.44
0.06 0.05 0.06 0.09 0.15 0.30 0.42 0.67 1.09 1.35 1.49 1.16 0.93 0.86 0.81 0.93 1.17 1.39 1.47 1.56 1.64 1.63 1.77 1.86 2.13 2.40 2.46 2.45 2.52 2.42 2.19 2.16 2.20 2.33 2.47 2.49 2.50 2.37 2.10 1.97 1.86 1.61 1.41 1.39 1.37 1.54 1.52 1.50 1.40
0.06 0.10 0.16 0.24 0.37 0.60 0.58 0.63 0.99 1.22 1.35 1.09 0.90 0.85 0.72 0.72 0.90 1.12 1.34 1.38 1.33 1.27 1.43 1.65 1.94 2.30 2.49 2.53 2.49 2.41 2.33 2.28 2.16 2.11 2.12 2.01 2.03 2.01 1.90 1.78 1.75 1.58 1.42 1.40 1.36 1.44 1.49 1.53 1.57
0.08 0.15 0.48 0.82 1.15 1.19 0.69 0.68 0.92 0.96 0.90 0.91 0.76 0.70 0.74 0.67 0.66 0.67 0.83 1.04 1.03 1.00 1.12 1.38 1.55 1.79 1.97 2.09 2.10 2.01 2.12 2.24 2.10 1.95 1.83 1.73 1.61 1.56 1.60 1.68 1.71 1.56 1.47 1.49 1.58 1.56 1.48 1.54 1.61
0.08 0.12 0.36 0.60 0.77 0.89 0.73 1.08 1.21 0.89 0.75 0.65 0.53 0.50 0.56 0.48 0.45 0.43 0.48 0.61 0.82 0.84 0.87 0.97 1.21 1.37 1.54 1.66 1.77 1.87 2.03 2.15 2.10 2.23 2.01 1.83 1.57 1.46 1.51 1.68 1.72 1.61 1.52 1.46 1.65 1.60 1.59 1.66 1.64
0.09 0.08 0.13 0.21 0.35 0.60 0.86 1.10 1.08 0.87 0.83 0.63 0.45 0.39 0.40 0.36 0.34 0.33 0.40 0.59 0.60 0.59 0.62 0.73 0.94 1.06 1.24 1.43 1.61 1.68 1.65 1.67 1.80 1.97 1.96 1.81 1.74 1.59 1.65 1.70 1.80 1.85 1.87 1.83 1.86 1.74 1.76 1.92 1.92
0.10 0.09 0.10 0.16 0.29 0.47 0.77 1.13 1.20 1.05 0.93 0.75 0.63 0.46 0.36 0.35 0.34 0.32 0.35 0.43 0.43 0.41 0.53 0.73 0.86 0.89 1.17 1.48 1.64 1.54 1.51 1.42 1.56 1.63 1.67 1.73 1.71 1.70 1.73 1.71 1.74 1.84 1.88 1.88 1.96 1.93 1.99 2.15 2.13
0.14 0.11 0.11 0.14 0.17 0.31 0.66 0.87 0.77 0.82 0.76 0.68 0.61 0.51 0.45 0.39 0.38 0.37 0.37 0.38 0.45 0.40 0.47 0.63 0.78 0.93 1.19 1.50 1.68 1.64 1.49 1.46 1.56 1.49 1.47 1.60 1.66 1.66 1.70 1.68 1.63 1.60 1.69 1.85 2.01 2.00 2.11 2.21 2.24
0.14 0.14 0.14 0.20 0.19 0.22 0.36 0.58 0.45 0.55 0.66 0.62 0.47 0.38 0.37 0.30 0.31 0.29 0.26 0.30 0.30 0.29 0.40 0.72 1.06 1.40 1.54 1.77 1.99 1.98 1.68 1.52 1.44 1.29 1.29 1.48 1.66 1.69 1.66 1.64 1.59 1.53 1.61 1.84 1.99 2.09 2.31 2.40 2.30